Simultaneous Nadir Overpasses (SNOs) Predictions

Prediction of SNOs between GOES-15 and METOP-A Satellite Orbit:

Table of predicted SNOs for the next 14.0 days since TLE Epoch: 4/29/2016
Index Date Time (GOES-15) GOES-15 Lat,Lon METOP-A Lat,Lon Distance(km) Time Diff (sec)
1 04/30/2016 18:31:21 -0.07,-135.33 -0.12,-135.22 13.06 80
2 05/03/2016 06:27:02 0.07,-135.25 0.18,-134.82 49.10 80
3 05/04/2016 18:45:54 -0.08,-135.26 0.85,-139.38 470.32 80
4 05/05/2016 18:27:54 -0.07,-135.23 -0.24,-134.38 96.46 80
5 05/07/2016 06:46:55 0.08,-135.16 -0.78,-138.98 435.28 80
6 05/08/2016 06:23:35 0.08,-135.14 0.31,-133.98 130.85 80
7 05/09/2016 18:42:29 -0.09,-135.13 0.66,-138.56 390.06 80
8 05/10/2016 18:24:29 -0.09,-135.10 -0.43,-133.56 175.92 80
9 05/12/2016 06:43:29
